Location: City of Moscow
(46.7306°N, 116.9989°W)
Time: 05:33:16
(UTC+00:00)

Orbus 7S? - Pass Details

Date: 19 March 2026
Orbit: 354 x 6170 km, 56.9° (Epoch: 30 September)

Event Time Altitude Azimuth Distance (km) Brightness Sun altitude
Rises 10:45:35 0° 160° (SSE) 10,495 9.6 -30.8°
Reaches altitude 10° 10:55:19 10° 151° (SSE) 9,664 9.5 -29.4°
Maximum altitude 11:22:13 28° 106° (ESE) 7,178 9.3 -25.6°
Drops below altitude 10° 11:40:25 10° 59° (ENE) 6,704 9.9 -22.8°
Sets 11:45:12 0° 49° (NE) 7,022 10.2 -22.0°
